K6OUA-11 Weather Reports


time (UTC)temp
F
wind
direction
speed
knots
gust
knots
rain 1hr
in
rain 24hr
in
rain mn
in
humidity
%
barometer
mb
20260831030833 73 209 0.0 0.0 0.00 0.00 0.00 64
20260831030631 73 209 0.0 0.0 0.00 0.00 0.00 64
20260831030429 73 209 0.0 0.0 0.00 0.00 0.00 63
20260831030227 73 209 0.0 0.0 0.00 0.00 0.00 63
20260831030025 73 209 0.0 0.0 0.00 0.00 0.00 63
20260831025823 73 209 0.0 0.0 0.00 0.00 0.00 62
20260831025621 73 209 0.0 1.7 0.00 0.00 0.00 62
20260831025419 73 209 0.0 1.7 0.00 0.00 0.00 62
20260831025217 74 209 0.0 0.0 0.00 0.00 0.00 62
20260831025015 74 209 0.0 0.0 0.00 0.00 0.00 61
20260831024813 74 216 0.0 0.0 0.00 0.00 0.00 61
20260831024611 74 216 0.0 0.0 0.00 0.00 0.00 60
20260831024411 74 216 0.0 0.0 0.00 0.00 0.00 60
20260831024207 75 216 0.0 0.0 0.00 0.00 0.00 60
20260831024005 75 216 0.0 0.0 0.00 0.00 0.00 59
20260831023803 75 216 0.0 0.0 0.00 0.00 0.00 59
20260831023601 75 216 0.0 0.0 0.00 0.00 0.00 59
20260831023359 75 216 0.0 0.0 0.00 0.00 0.00 59
20260831023157 75 216 0.0 0.0 0.00 0.00 0.00 59
20260831022955 75 216 0.0 0.0 0.00 0.00 0.00 59
20260831022753 75 216 0.0 0.0 0.00 0.00 0.00 58
20260831022551 75 216 0.0 0.0 0.00 0.00 0.00 58
20260831022349 76 216 0.0 0.0 0.00 0.00 0.00 58
20260831022147 76 216 0.0 2.6 0.00 0.00 0.00 58
20260831021945 76 216 0.0 2.6 0.00 0.00 0.00 58
20260831021743 76 216 0.0 2.6 0.00 0.00 0.00 57
20260831021541 76 216 0.0 2.6 0.00 0.00 0.00 57
20260831021339 76 248 0.0 2.6 0.00 0.00 0.00 57
20260831021138 76 198 0.0 3.5 0.00 0.00 0.00 57
20260831020936 77 257 0.0 3.5 0.00 0.00 0.00 57
20260831020734 77 257 0.0 4.3 0.00 0.00 0.00 56
20260831020532 77 237 0.0 4.3 0.00 0.00 0.00 56
20260831020330 77 285 2.6 4.3 0.00 0.00 0.00 56
20260831020128 77 270 0.0 4.3 0.00 0.00 0.00 56
20260831015724 77 291 3.5 5.2 0.00 0.00 0.00 56
20260831015522 77 258 0.9 5.2 0.00 0.00 0.00 56
20260831015118 77 288 3.5 5.2 0.00 0.00 0.00 55
20260831014916 78 215 0.9 5.2 0.00 0.00 0.00 55
20260831014714 78 268 5.2 3.5 0.00 0.00 0.00 55
20260831014512 78 270 1.7 3.5 0.00 0.00 0.00 55
20260831014310 78 264 0.0 3.5 0.00 0.00 0.00 55
20260831014110 78 289 0.9 7.0 0.00 0.00 0.00 55
20260831013906 78 254 0.9 7.0 0.00 0.00 0.00 55
20260831013704 78 272 2.6 7.0 0.00 0.00 0.00 55
20260831013504 78 257 2.6 7.0 0.00 0.00 0.00 54
20260831013300 78 241 5.2 7.0 0.00 0.00 0.00 54
20260831013058 79 270 3.5 8.7 0.00 0.00 0.00 54
20260831012856 79 255 3.5 8.7 0.00 0.00 0.00 54
20260831012654 79 275 5.2 7.0 0.00 0.00 0.00 54
20260831012452 79 303 6.1 7.0 0.00 0.00 0.00 54
20260831012250 79 272 5.2 7.0 0.00 0.00 0.00 54
20260831012048 79 288 4.3 7.0 0.00 0.00 0.00 54
20260831011644 80 270 3.5 4.3 0.00 0.00 0.00 53
20260831011443 80 275 5.2 4.3 0.00 0.00 0.00 53
20260831011038 79 265 0.0 9.6 0.00 0.00 0.00 54
20260831010637 79 274 5.2 10.4 0.00 0.00 0.00 55
20260831010231 79 261 9.6 10.4 0.00 0.00 0.00 54
20260831005827 79 262 5.2 10.4 0.00 0.00 0.00 55
20260831005626 79 258 3.5 11.3 0.00 0.00 0.00 55
20260831005423 79 270 8.7 11.3 0.00 0.00 0.00 55
20260831005221 79 262 7.8 12.2 0.00 0.00 0.00 54
20260831005019 79 248 7.0 12.2 0.00 0.00 0.00 54
20260831004817 79 264 8.7 12.2 0.00 0.00 0.00 53
20260831004615 80 253 4.3 13.0 0.00 0.00 0.00 54
20260831004413 80 278 8.7 13.0 0.00 0.00 0.00 54
20260831004009 80 271 9.6 13.9 0.00 0.00 0.00 54
20260831003807 80 277 7.0 13.9 0.00 0.00 0.00 53
20260831003605 80 271 9.6 13.0 0.00 0.00 0.00 53
20260831003403 80 258 7.8 13.0 0.00 0.00 0.00 53
20260831003000 80 248 7.8 9.6 0.00 0.00 0.00 53
20260831002758 81 270 11.3 9.6 0.00 0.00 0.00 53
20260831002556 81 255 7.0 13.0 0.00 0.00 0.00 52
20260831002354 81 251 5.2 13.0 0.00 0.00 0.00 52
20260831002153 81 277 7.8 11.3 0.00 0.00 0.00 53
20260831001950 81 264 7.8 11.3 0.00 0.00 0.00 53
20260831001748 81 264 7.0 11.3 0.00 0.00 0.00 52
20260831001546 81 246 7.0 11.3 0.00 0.00 0.00 53
20260831001344 81 279 7.0 11.3 0.00 0.00 0.00 53
20260831001142 81 257 10.4 12.2 0.00 0.00 0.00 53
20260831000940 81 262 7.0 12.2 0.00 0.00 0.00 52
20260831000740 81 251 6.1 13.0 0.00 0.00 0.00 52
20260831000536 82 264 6.1 13.0 0.00 0.00 0.00 52
20260831000336 82 253 8.7 13.0 0.00 0.00 0.00 52
20260830235930 82 264 7.8 11.3 0.00 0.00 0.00 52
20260830235731 82 258 8.7 12.2 0.00 0.00 0.00 51
20260830235528 83 279 7.0 12.2 0.00 0.00 0.00 50
20260830235324 83 265 7.8 12.2 0.00 0.00 0.00 50
20260830235122 83 265 7.8 12.2 0.00 0.00 0.00 50
20260830234920 83 241 8.7 12.2 0.00 0.00 0.00 50
20260830234718 83 240 7.8 10.4 0.00 0.00 0.00 49
20260830234519 84 262 6.1 10.4 0.00 0.00 0.00 49
20260830234315 83 261 6.1 10.4 0.00 0.00 0.00 50
20260830234113 83 267 7.8 10.4 0.00 0.00 0.00 50
20260830233913 83 237 6.1 10.4 0.00 0.00 0.00 51
20260830233711 83 264 6.1 9.6 0.00 0.00 0.00 51
20260830233546 83 255 7.8 9.6 0.00 0.00 0.00 51
20260830233508 83 255 7.8 9.6 0.00 0.00 0.00 51
20260830233305 83 247 5.2 9.6 0.00 0.00 0.00 51
20260830233105 83 275 4.3 10.4 0.00 0.00 0.00 50
20260830232903 84 255 7.8 10.4 0.00 0.00 0.00 49
20260830232701 84 277 6.1 13.9 0.00 0.00 0.00 49
20260830232457 84 260 7.0 13.9 0.00 0.00 0.00 50
20260830232255 83 268 7.8 13.9 0.00 0.00 0.00 50
20260830232053 83 274 7.8 13.9 0.00 0.00 0.00 50
20260830231851 83 229 7.8 13.9 0.00 0.00 0.00 50
20260830231651 83 258 9.6 13.9 0.00 0.00 0.00 50
20260830231247 84 244 9.6 9.6 0.00 0.00 0.00 49
20260830231043 84 265 7.0 9.6 0.00 0.00 0.00 48
20260830230843 84 267 11.3 9.6 0.00 0.00 0.00 48
20260830230639 84 255 5.2 9.6 0.00 0.00 0.00 49
20260830230439 84 281 5.2 9.6 0.00 0.00 0.00 48
20260830230237 84 253 8.7 10.4 0.00 0.00 0.00 49
20260830230035 84 258 6.1 10.4 0.00 0.00 0.00 49
20260830225833 84 261 6.1 10.4 0.00 0.00 0.00 48
20260830225630 84 258 5.2 11.3 0.00 0.00 0.00 48
20260830225428 84 258 6.1 11.3 0.00 0.00 0.00 49
20260830225227 84 277 5.2 7.8 0.00 0.00 0.00 49
20260830225025 84 262 7.0 7.8 0.00 0.00 0.00 50
20260830224621 84 261 3.5 9.6 0.00 0.00 0.00 51
20260830224420 84 272 5.2 9.6 0.00 0.00 0.00 50
20260830224217 84 265 4.3 8.7 0.00 0.00 0.00 50
20260830224016 84 240 1.7 8.7 0.00 0.00 0.00 49
20260830223814 85 265 1.7 8.7 0.00 0.00 0.00 49
20260830223610 85 248 6.1 10.4 0.00 0.00 0.00 48
20260830223410 85 248 6.1 10.4 0.00 0.00 0.00 47
20260830223206 86 277 7.0 11.3 0.00 0.00 0.00 47
20260830223006 86 286 5.2 11.3 0.00 0.00 0.00 47
20260830222804 86 288 3.5 11.3 0.00 0.00 0.00 47
20260830222603 86 270 7.8 10.4 0.00 0.00 0.00 46
20260830222400 86 282 7.8 10.4 0.00 0.00 0.00 47
20260830222158 86 268 4.3 9.6 0.00 0.00 0.00 46
20260830221956 86 248 5.2 9.6 0.00 0.00 0.00 46
20260830221755 86 268 5.2 9.6 0.00 0.00 0.00 46
20260830221351 85 264 5.2 9.6 0.00 0.00 0.00 47
20260830221149 85 278 2.6 11.3 0.00 0.00 0.00 48
20260830220946 85 270 7.8 11.3 0.00 0.00 0.00 48
20260830220745 85 251 5.2 10.4 0.00 0.00 0.00 49
20260830220543 84 257 8.7 10.4 0.00 0.00 0.00 48
20260830220139 84 267 7.0 9.6 0.00 0.00 0.00 49
20260830215935 84 270 6.1 9.6 0.00 0.00 0.00 49
20260830215736 84 258 2.6 11.3 0.00 0.00 0.00 50
20260830215329 84 260 3.5 11.3 0.00 0.00 0.00 50
20260830215127 84 278 4.3 10.4 0.00 0.00 0.00 49
20260830214927 85 260 7.0 10.4 0.00 0.00 0.00 49
20260830214725 85 247 4.3 13.0 0.00 0.00 0.00 49
20260830214523 84 230 6.1 13.0 0.00 0.00 0.00 50
20260830214321 84 262 5.2 13.0 0.00 0.00 0.00 50
20260830214120 84 270 8.7 11.3 0.00 0.00 0.00 50
20260830213917 84 257 7.0 11.3 0.00 0.00 0.00 50
20260830213513 84 260 11.3 12.2 0.00 0.00 0.00 50
20260830213311 84 258 6.1 12.2 0.00 0.00 0.00 50
20260830213110 84 222 4.3 10.4 0.00 0.00 0.00 51
20260830212908 84 274 5.2 10.4 0.00 0.00 0.00 50
20260830212705 84 268 7.8 10.4 0.00 0.00 0.00 51
20260830212504 83 270 7.0 10.4 0.00 0.00 0.00 51
20260830212305 83 255 3.5 10.4 0.00 0.00 0.00 51
20260830212100 83 225 4.3 13.0 0.00 0.00 0.00 50
20260830211858 83 265 6.1 13.0 0.00 0.00 0.00 50
20260830211454 83 271 6.1 11.3 0.00 0.00 0.00 51
20260830211252 83 255 3.5 11.3 0.00 0.00 0.00 51
20260830211050 83 268 7.0 10.4 0.00 0.00 0.00 51
20260830210646 83 258 7.8 13.0 0.00 0.00 0.00 52
20260830210442 83 255 4.3 13.0 0.00 0.00 0.00 52
20260830210240 83 253 7.8 13.9 0.00 0.00 0.00 52
20260830210038 83 279 6.1 13.9 0.00 0.00 0.00 51
20260830205636 82 258 9.6 12.2 0.00 0.00 0.00 53
20260830205432 83 288 7.0 12.2 0.00 0.00 0.00 53
20260830205233 83 285 7.0 13.9 0.00 0.00 0.00 52
20260830204828 84 250 9.6 13.9 0.00 0.00 0.00 51
20260830204627 84 250 7.8 13.9 0.00 0.00 0.00 50
20260830204425 84 268 7.0 13.9 0.00 0.00 0.00 50
20260830204223 84 279 7.0 14.8 0.00 0.00 0.00 50
20260830204020 85 268 4.3 14.8 0.00 0.00 0.00 50
20260830203819 84 258 7.8 14.8 0.00 0.00 0.00 50
20260830203615 84 239 7.0 14.8 0.00 0.00 0.00 50
20260830203415 84 254 9.6 14.8 0.00 0.00 0.00 50
20260830203011 85 265 7.8 14.8 0.00 0.00 0.00 50
20260830202809 85 268 7.0 14.8 0.00 0.00 0.00 49
20260830202606 84 250 7.0 14.8 0.00 0.00 0.00 49
20260830202405 84 267 7.0 14.8 0.00 0.00 0.00 50
20260830202203 84 286 7.8 12.2 0.00 0.00 0.00 49
20260830201757 85 254 7.0 12.2 0.00 0.00 0.00 48
20260830201557 85 279 8.7 13.0 0.00 0.00 0.00 48
20260830201355 85 234 9.6 13.0 0.00 0.00 0.00 48
20260830201153 85 270 7.0 11.3 0.00 0.00 0.00 48
20260830200951 85 247 7.8 11.3 0.00 0.00 0.00 47
20260830200750 86 279 7.0 11.3 0.00 0.00 0.00 47
20260830200547 85 257 4.3 10.4 0.00 0.00 0.00 48
20260830200345 85 278 3.5 10.4 0.00 0.00 0.00 48
20260830200142 85 272 7.8 10.4 0.00 0.00 0.00 49
20260830195940 84 251 2.6 10.4 0.00 0.00 0.00 50
20260830195740 83 265 4.3 10.4 0.00 0.00 0.00 52
20260830195336 83 288 5.2 10.4 0.00 0.00 0.00 51
20260830195134 83 271 5.2 11.3 0.00 0.00 0.00 51
20260830194930 83 248 7.8 11.3 0.00 0.00 0.00 50
20260830194528 84 241 9.6 10.4 0.00 0.00 0.00 52
20260830194326 83 264 6.1 10.4 0.00 0.00 0.00 51
20260830194125 83 270 7.8 11.3 0.00 0.00 0.00 50
20260830193920 84 260 7.8 11.3 0.00 0.00 0.00 50
20260830193718 84 240 2.6 14.8 0.00 0.00 0.00 49
20260830193516 84 271 5.2 14.8 0.00 0.00 0.00 49
20260830193316 84 255 6.1 14.8 0.00 0.00 0.00 50
20260830192912 84 270 11.3 13.0 0.00 0.00 0.00 49
20260830192708 84 239 8.7 13.0 0.00 0.00 0.00 50
20260830192507 84 271 7.8 13.0 0.00 0.00 0.00 50
20260830192307 84 261 10.4 13.0 0.00 0.00 0.00 51
20260830191701 84 268 7.0 12.2 0.00 0.00 0.00 49
20260830191459 84 247 6.1 12.2 0.00 0.00 0.00 50
20260830191257 83 264 6.1 12.2 0.00 0.00 0.00 51
20260830191055 83 248 6.1 11.3 0.00 0.00 0.00 51
20260830190651 83 239 8.7 13.0 0.00 0.00 0.00 51
20260830190449 83 264 10.4 13.0 0.00 0.00 0.00 51
20260830190247 83 246 6.1 13.0 0.00 0.00 0.00 51
20260830190045 83 274 9.6 13.0 0.00 0.00 0.00 51
20260830185843 83 282 5.2 13.0 0.00 0.00 0.00 52
20260830185639 83 274 9.6 12.2 0.00 0.00 0.00 53
20260830185437 82 270 8.7 12.2 0.00 0.00 0.00 52
20260830185237 83 257 8.7 13.0 0.00 0.00 0.00 52
20260830185035 82 257 7.0 13.0 0.00 0.00 0.00 52
20260830184831 82 265 6.1 13.0 0.00 0.00 0.00 52
20260830184631 82 268 7.8 13.0 0.00 0.00 0.00 52
20260830184429 82 267 8.7 13.0 0.00 0.00 0.00 52
20260830184024 83 251 9.6 11.3 0.00 0.00 0.00 52
20260830183824 83 267 6.1 11.3 0.00 0.00 0.00 52
20260830183622 82 281 4.3 11.3 0.00 0.00 0.00 53
20260830183418 82 254 10.4 11.3 0.00 0.00 0.00 53
20260830183217 82 272 9.6 11.3 0.00 0.00 0.00 53
20260830183014 82 275 6.1 11.3 0.00 0.00 0.00 53
20260830182812 82 265 7.8 11.3 0.00 0.00 0.00 54
20260830182610 82 261 8.7 10.4 0.00 0.00 0.00 54
20260830182208 82 247 9.6 9.6 0.00 0.00 0.00 53
20260830181804 82 296 4.3 9.6 0.00 0.00 0.00 53
20260830181156 83 284 6.1 9.6 0.00 0.00 0.00 51
20260830180956 83 292 2.6 9.6 0.00 0.00 0.00 51
20260830180753 83 275 7.8 9.6 0.00 0.00 0.00 50
20260830180552 84 267 7.0 8.7 0.00 0.00 0.00 49
20260830180350 84 260 7.8 8.7 0.00 0.00 0.00 49
20260830180147 84 257 4.3 7.8 0.00 0.00 0.00 49
20260830175946 84 292 4.3 7.8 0.00 0.00 0.00 49
20260830175744 84 295 4.3 8.7 0.00 0.00 0.00 49
20260830175541 84 261 1.7 8.7 0.00 0.00 0.00 50
20260830175340 83 261 6.1 8.7 0.00 0.00 0.00 50
20260830175139 83 258 7.0 9.6 0.00 0.00 0.00 49
20260830174936 83 279 3.5 9.6 0.00 0.00 0.00 50
20260830174734 83 288 4.3 8.7 0.00 0.00 0.00 50
20260830174533 83 260 2.6 8.7 0.00 0.00 0.00 51
20260830174329 82 295 1.7 8.7 0.00 0.00 0.00 51
20260830174129 83 260 6.1 7.8 0.00 0.00 0.00 51
20260830173925 82 282 5.2 7.8 0.00 0.00 0.00 52
20260830173725 82 286 4.3 8.7 0.00 0.00 0.00 51
20260830173523 83 291 0.9 8.7 0.00 0.00 0.00 51
20260830173321 83 250 6.1 8.7 0.00 0.00 0.00 50
20260830173119 84 265 7.8 5.2 0.00 0.00 0.00 49
20260830172915 84 277 2.6 5.2 0.00 0.00 0.00 48
20260830172511 84 112 0.0 3.5 0.00 0.00 0.00 48
20260830172311 84 112 0.0 3.5 0.00 0.00 0.00 47
20260830172109 84 112 0.0 4.3 0.00 0.00 0.00 47
20260830171907 84 120 0.9 4.3 0.00 0.00 0.00 47
20260830171501 84 126 0.9 5.2 0.00 0.00 0.00 48
20260830171259 83 127 2.6 5.2 0.00 0.00 0.00 48
20260830171059 83 149 2.6 4.3 0.00 0.00 0.00 48
20260830170858 83 113 3.5 4.3 0.00 0.00 0.00 48
20260830170655 83 144 0.0 5.2 0.00 0.00 0.00 49
20260830170454 83 125 2.6 5.2 0.00 0.00 0.00 50
20260830170252 82 125 2.6 5.2 0.00 0.00 0.00 52
20260830165644 81 64 0.0 4.3 0.00 0.00 0.00 54
20260830165443 81 64 0.0 4.3 0.00 0.00 0.00 54
20260830165242 80 119 2.6 5.2 0.00 0.00 0.00 54
20260830165040 80 130 0.9 5.2 0.00 0.00 0.00 55
20260830164836 80 126 1.7 5.2 0.00 0.00 0.00 55
20260830164636 80 139 2.6 6.1 0.00 0.00 0.00 56
20260830164435 80 161 2.6 6.1 0.00 0.00 0.00 56
20260830164230 79 99 3.5 6.1 0.00 0.00 0.00 56
20260830164030 79 120 3.5 6.1 0.00 0.00 0.00 57
20260830163826 79 136 3.5 6.1 0.00 0.00 0.00 57
20260830163626 79 106 4.3 5.2 0.00 0.00 0.00 57
20260830163424 79 112 1.7 5.2 0.00 0.00 0.00 58
20260830163220 79 143 1.7 4.3 0.00 0.00 0.00 59
20260830163018 79 92 4.3 4.3 0.00 0.00 0.00 59
20260830162816 78 136 1.7 4.3 0.00 0.00 0.00 60
20260830162614 78 99 2.6 3.5 0.00 0.00 0.00 61
20260830162414 78 109 2.6 3.5 0.00 0.00 0.00 60
20260830162212 78 116 1.7 2.6 0.00 0.00 0.00 60
20260830162008 78 112 0.9 2.6 0.00 0.00 0.00 60
20260830161807 78 116 1.7 2.6 0.00 0.00 0.00 60
20260830161605 78 125 0.9 3.5 0.00 0.00 0.00 61
20260830161405 78 126 0.9 3.5 0.00 0.00 0.00 61
20260830161203 77 105 2.6 1.7 0.00 0.00 0.00 61
20260830160959 77 123 1.7 1.7 0.00 0.00 0.00 62
20260830160758 77 66 0.0 1.7 0.00 0.00 0.00 64
20260830160557 76 94 0.0 0.0 0.00 0.00 0.00 65
20260830160355 76 213 0.0 0.0 0.00 0.00 0.00 66
20260830155951 76 213 0.0 0.0 0.00 0.00 0.00 66
20260830155748 76 213 0.0 0.0 0.00 0.00 0.00 66
20260830155547 76 213 0.0 3.5 0.00 0.00 0.00 65
20260830155343 76 213 0.0 3.5 0.00 0.00 0.00 66
20260830155141 76 285 2.6 0.0 0.00 0.00 0.00 65
20260830154941 76 265 0.0 0.0 0.00 0.00 0.00 66
20260830154535 75 254 0.0 1.7 0.00 0.00 0.00 67
20260830154333 75 254 0.0 1.7 0.00 0.00 0.00 68
20260830154131 75 254 0.0 1.7 0.00 0.00 0.00 68
20260830153929 75 254 0.0 1.7 0.00 0.00 0.00 68
20260830153729 75 310 0.9 2.6 0.00 0.00 0.00 68
20260830153527 75 84 0.0 2.6 0.00 0.00 0.00 69
20260830153325 74 84 0.0 2.6 0.00 0.00 0.00 70
20260830153123 74 77 0.0 2.6 0.00 0.00 0.00 70
20260830152921 74 99 0.0 2.6 0.00 0.00 0.00 70
20260830152719 74 147 1.7 0.0 0.00 0.00 0.00 71
20260830152515 73 142 0.0 0.0 0.00 0.00 0.00 71
20260830152315 73 68 0.0 0.0 0.00 0.00 0.00 73
20260830151910 72 68 0.0 0.0 0.00 0.00 0.00 75
20260830151709 72 68 0.0 0.0 0.00 0.00 0.00 76
20260830151508 71 68 0.0 0.0 0.00 0.00 0.00 77
20260830151305 70 68 0.0 0.0 0.00 0.00 0.00 78
20260830151103 70 68 0.0 0.0 0.00 0.00 0.00 80
20260830150902 69 68 0.0 0.0 0.00 0.00 0.00 80
20260830150700 69 68 0.0 1.7 0.00 0.00 0.00 81
20260830150456 69 68 0.0 1.7 0.00 0.00 0.00 81
20260830150256 69 68 0.0 1.7 0.00 0.00 0.00 82
20260830150054 68 68 0.0 1.7 0.00 0.00 0.00 82
20260830145851 68 119 0.9 1.7 0.00 0.00 0.00 83
20260830145448 68 248 0.0 0.0 0.00 0.00 0.00 84
20260830145246 68 248 0.0 0.0 0.00 0.00 0.00 85
20260830145045 67 248 0.0 0.0 0.00 0.00 0.00 85
20260830144842 67 248 0.0 0.0 0.00 0.00 0.00 85
20260830144639 67 248 0.0 0.0 0.00 0.00 0.00 85
20260830144439 67 248 0.0 0.0 0.00 0.00 0.00 85
20260830144236 67 248 0.0 0.0 0.00 0.00 0.00 85
20260830144035 67 248 0.0 0.0 0.00 0.00 0.00 85
20260830143831 67 248 0.0 0.0 0.00 0.00 0.00 86
20260830143629 67 248 0.0 0.0 0.00 0.00 0.00 86
20260830143227 66 248 0.0 0.0 0.00 0.00 0.00 86
20260830143025 66 248 0.0 0.0 0.00 0.00 0.00 86
20260830142824 66 248 0.0 0.0 0.00 0.00 0.00 86
20260830142622 65 248 0.0 0.0 0.00 0.00 0.00 86
20260830142419 65 248 0.0 0.0 0.00 0.00 0.00 87
20260830142016 65 248 0.0 0.0 0.00 0.00 0.00 87
20260830141814 65 248 0.0 0.0 0.00 0.00 0.00 88
20260830141410 65 248 0.0 2.6 0.00 0.00 0.00 88
20260830141206 65 248 0.0 0.0 0.00 0.00 0.00 88
20260830141004 65 286 0.9 0.0 0.00 0.00 0.00 88
20260830140803 65 291 0.0 0.0 0.00 0.00 0.00 88
20260830140601 65 291 0.0 0.0 0.00 0.00 0.00 89
20260830140401 65 291 0.0 0.0 0.00 0.00 0.00 88
20260830140159 65 291 0.0 0.0 0.00 0.00 0.00 88
20260830135955 65 291 0.0 0.0 0.00 0.00 0.00 88
20260830135755 65 291 0.0 0.0 0.00 0.00 0.00 88
20260830135551 64 291 0.0 0.0 0.00 0.00 0.00 88
20260830135351 64 291 0.0 0.0 0.00 0.00 0.00 88
20260830135147 64 291 0.0 0.0 0.00 0.00 0.00 88
20260830134947 64 291 0.0 0.0 0.00 0.00 0.00 88
20260830134745 64 291 0.0 0.0 0.00 0.00 0.00 88
20260830134543 64 291 0.0 0.0 0.00 0.00 0.00 88
20260830134342 64 291 0.0 0.0 0.00 0.00 0.00 88
20260830134140 64 291 0.0 0.0 0.00 0.00 0.00 88
20260830133938 64 291 0.0 0.0 0.00 0.00 0.00 88
20260830133736 65 291 0.0 0.0 0.00 0.00 0.00 88
20260830133330 65 291 0.0 0.0 0.00 0.00 0.00 88
20260830133128 65 291 0.0 0.0 0.00 0.00 0.00 88
20260830132928 65 291 0.0 0.0 0.00 0.00 0.00 89
20260830132726 65 291 0.0 0.0 0.00 0.00 0.00 89
20260830132523 65 291 0.0 0.0 0.00 0.00 0.00 89
20260830132120 65 291 0.0 0.0 0.00 0.00 0.00 88
20260830131716 65 291 0.0 0.0 0.00 0.00 0.00 88
20260830131515 65 291 0.0 0.0 0.00 0.00 0.00 88
20260830131111 65 291 0.0 0.0 0.00 0.00 0.00 88
20260830130909 65 291 0.0 0.0 0.00 0.00 0.00 88
20260830130707 65 291 0.0 0.0 0.00 0.00 0.00 89
20260830130101 65 291 0.0 0.0 0.00 0.00 0.00 88
20260830125859 65 291 0.0 0.0 0.00 0.00 0.00 88
20260830125656 65 291 0.0 0.0 0.00 0.00 0.00 88
20260830125455 65 291 0.0 0.0 0.00 0.00 0.00 88
20260830125254 65 291 0.0 0.0 0.00 0.00 0.00 88
20260830125054 65 291 0.0 0.0 0.00 0.00 0.00 88
20260830124848 65 291 0.0 0.0 0.00 0.00 0.00 88
20260830124648 65 291 0.0 0.0 0.00 0.00 0.00 88
20260830124446 65 291 0.0 0.0 0.00 0.00 0.00 88
20260830124245 65 291 0.0 0.0 0.00 0.00 0.00 88
20260830124042 65 291 0.0 0.0 0.00 0.00 0.00 88
20260830123840 65 291 0.0 0.0 0.00 0.00 0.00 88
20260830123639 65 291 0.0 0.0 0.00 0.00 0.00 88
20260830123438 65 291 0.0 0.0 0.00 0.00 0.00 88
20260830123235 65 291 0.0 0.0 0.00 0.00 0.00 88
20260830123033 65 291 0.0 0.0 0.00 0.00 0.00 88
20260830122831 65 291 0.0 0.0 0.00 0.00 0.00 88
20260830122627 65 291 0.0 0.0 0.00 0.00 0.00 88
20260830122427 65 291 0.0 0.0 0.00 0.00 0.00 88
20260830122225 65 291 0.0 0.0 0.00 0.00 0.00 88
20260830121821 65 291 0.0 0.0 0.00 0.00 0.00 88
20260830121619 65 291 0.0 0.0 0.00 0.00 0.00 88
20260830121418 65 291 0.0 0.0 0.00 0.00 0.00 88
20260830121216 65 291 0.0 0.0 0.00 0.00 0.00 88
20260830121012 66 291 0.0 0.0 0.00 0.00 0.00 88
20260830120812 66 291 0.0 0.0 0.00 0.00 0.00 88
20260830120610 66 291 0.0 0.0 0.00 0.00 0.00 88
20260830120408 65 291 0.0 0.0 0.00 0.00 0.00 88
20260830120206 66 291 0.0 0.0 0.00 0.00 0.00 88
20260830120004 66 291 0.0 0.0 0.00 0.00 0.00 88
20260830115802 66 291 0.0 0.0 0.00 0.00 0.00 88
20260830115600 66 291 0.0 0.0 0.00 0.00 0.00 88
20260830115359 66 291 0.0 0.0 0.00 0.00 0.00 87
20260830115157 65 291 0.0 0.0 0.00 0.00 0.00 87
20260830114954 66 291 0.0 0.0 0.00 0.00 0.00 87
20260830114551 66 291 0.0 0.0 0.00 0.00 0.00 87
20260830114349 66 291 0.0 0.0 0.00 0.00 0.00 87
20260830114147 66 291 0.0 0.0 0.00 0.00 0.00 88
20260830113945 66 291 0.0 0.0 0.00 0.00 0.00 88
20260830113743 66 291 0.0 0.0 0.00 0.00 0.00 87
20260830113541 66 291 0.0 0.0 0.00 0.00 0.00 87
20260830113339 66 291 0.0 0.0 0.00 0.00 0.00 87
20260830113137 66 291 0.0 0.0 0.00 0.00 0.00 87
20260830112936 66 291 0.0 0.0 0.00 0.00 0.00 87
20260830112734 66 291 0.0 0.0 0.00 0.00 0.00 87
20260830112328 66 291 0.0 0.0 0.00 0.00 0.00 87
20260830112126 66 291 0.0 0.0 0.00 0.00 0.00 87
20260830111926 66 291 0.0 0.0 0.00 0.00 0.00 87
20260830111724 66 291 0.0 0.0 0.00 0.00 0.00 87
20260830111521 66 291 0.0 0.0 0.00 0.00 0.00 87
20260830111321 66 291 0.0 0.0 0.00 0.00 0.00 87
20260830111118 66 291 0.0 0.0 0.00 0.00 0.00 86
20260830110915 66 291 0.0 0.0 0.00 0.00 0.00 86
20260830110714 66 291 0.0 0.0 0.00 0.00 0.00 86
20260830110513 66 291 0.0 0.0 0.00 0.00 0.00 86
20260830110311 66 291 0.0 0.0 0.00 0.00 0.00 86
20260830110109 66 291 0.0 0.0 0.00 0.00 0.00 86
20260830105907 66 291 0.0 0.0 0.00 0.00 0.00 86
20260830105706 66 291 0.0 0.0 0.00 0.00 0.00 86
20260830105300 66 291 0.0 0.0 0.00 0.00 0.00 86
20260830105059 67 291 0.0 0.0 0.00 0.00 0.00 86
20260830104858 67 291 0.0 0.0 0.00 0.00 0.00 86
20260830104654 67 291 0.0 0.0 0.00 0.00 0.00 86
20260830104454 67 291 0.0 0.0 0.00 0.00 0.00 86
20260830104252 67 291 0.0 0.0 0.00 0.00 0.00 86
20260830104050 67 291 0.0 0.0 0.00 0.00 0.00 86
20260830103848 67 291 0.0 0.0 0.00 0.00 0.00 86
20260830103646 67 291 0.0 0.0 0.00 0.00 0.00 86
20260830103445 67 291 0.0 0.0 0.00 0.00 0.00 86
20260830103242 67 291 0.0 0.0 0.00 0.00 0.00 86
20260830103039 67 291 0.0 0.0 0.00 0.00 0.00 86
20260830102838 67 291 0.0 0.0 0.00 0.00 0.00 86
20260830102637 67 291 0.0 0.0 0.00 0.00 0.00 86
20260830102435 67 291 0.0 0.0 0.00 0.00 0.00 86
20260830102233 67 291 0.0 0.0 0.00 0.00 0.00 86
20260830102031 67 291 0.0 0.0 0.00 0.00 0.00 85
20260830101828 67 291 0.0 0.0 0.00 0.00 0.00 85
20260830101627 67 291 0.0 0.0 0.00 0.00 0.00 85
20260830101425 67 291 0.0 0.0 0.00 0.00 0.00 85
20260830101223 67 291 0.0 0.0 0.00 0.00 0.00 85
20260830101021 67 291 0.0 0.0 0.00 0.00 0.00 85
20260830100618 67 291 0.0 0.0 0.00 0.00 0.00 85
20260830100414 67 291 0.0 0.0 0.00 0.00 0.00 85
20260830095810 68 291 0.0 0.0 0.00 0.00 0.00 85
20260830095608 67 291 0.0 0.0 0.00 0.00 0.00 85
20260830095202 68 291 0.0 0.0 0.00 0.00 0.00 85
20260830094559 68 291 0.0 2.6 0.00 0.00 0.00 85
20260830094357 68 291 0.0 2.6 0.00 0.00 0.00 85
20260830094153 68 291 0.0 4.3 0.00 0.00 0.00 85
20260830093749 68 309 2.6 4.3 0.00 0.00 0.00 85
20260830093549 68 285 3.5 4.3 0.00 0.00 0.00 85
20260830093347 68 306 3.5 4.3 0.00 0.00 0.00 84
20260830093145 68 316 3.5 3.5 0.00 0.00 0.00 84
20260830092943 68 309 2.6 3.5 0.00 0.00 0.00 84
20260830092741 68 307 2.6 3.5 0.00 0.00 0.00 84
20260830092539 68 298 2.6 3.5 0.00 0.00 0.00 84
20260830092337 68 295 1.7 3.5 0.00 0.00 0.00 84
20260830092135 68 289 2.6 3.5 0.00 0.00 0.00 84
20260830091932 68 299 2.6 3.5 0.00 0.00 0.00 84
20260830091732 68 298 0.9 5.2 0.00 0.00 0.00 83
20260830091328 68 296 1.7 5.2 0.00 0.00 0.00 84
20260830091124 68 272 3.5 6.1 0.00 0.00 0.00 84
20260830090924 68 282 3.5 6.1 0.00 0.00 0.00 84
20260830090721 68 282 5.2 4.3 0.00 0.00 0.00 83
20260830090520 68 278 5.2 4.3 0.00 0.00 0.00 83
20260830090318 68 281 4.3 4.3 0.00 0.00 0.00 83
20260830090115 68 286 3.5 3.5 0.00 0.00 0.00 83
20260830085915 68 284 2.6 3.5 0.00 0.00 0.00 83
20260830085711 68 300 1.7 5.2 0.00 0.00 0.00 83
20260830085509 69 295 3.5 5.2 0.00 0.00 0.00 83
20260830085307 69 298 2.6 5.2 0.00 0.00 0.00 83
20260830085105 68 298 3.5 4.3 0.00 0.00 0.00 83
20260830084903 69 299 1.7 4.3 0.00 0.00 0.00 83
20260830084702 69 291 3.5 4.3 0.00 0.00 0.00 82
20260830084500 69 282 3.5 4.3 0.00 0.00 0.00 83
20260830084258 69 292 3.5 4.3 0.00 0.00 0.00 82
20260830084058 69 295 4.3 4.3 0.00 0.00 0.00 82
20260830083854 69 296 3.5 4.3 0.00 0.00 0.00 82
20260830083652 69 299 2.6 2.6 0.00 0.00 0.00 81
20260830083450 69 299 2.6 2.6 0.00 0.00 0.00 81
20260830083250 69 303 0.9 2.6 0.00 0.00 0.00 81
20260830083046 69 299 1.7 2.6 0.00 0.00 0.00 81
20260830082846 69 292 2.6 2.6 0.00 0.00 0.00 81
20260830082642 69 298 1.7 2.6 0.00 0.00 0.00 80
20260830082442 69 295 1.7 2.6 0.00 0.00 0.00 81
20260830082038 69 288 1.7 0.0 0.00 0.00 0.00 80
20260830081836 69 285 0.0 0.0 0.00 0.00 0.00 80
20260830081632 69 285 0.0 0.0 0.00 0.00 0.00 80
20260830081430 69 285 0.0 0.0 0.00 0.00 0.00 80
20260830081229 69 285 0.0 0.0 0.00 0.00 0.00 80
20260830081027 69 285 0.0 0.0 0.00 0.00 0.00 80
20260830080826 69 285 0.0 0.0 0.00 0.00 0.00 80
20260830080625 69 285 0.0 0.0 0.00 0.00 0.00 80
20260830080219 69 285 0.0 0.0 0.00 0.00 0.00 80
20260830080017 69 285 0.0 0.0 0.00 0.00 0.00 79
20260830075815 70 285 0.0 0.0 0.00 0.00 0.00 79
20260830075613 70 285 0.0 0.0 0.00 0.00 0.00 79
20260830075411 70 285 0.0 0.0 0.00 0.00 0.00 79
20260830075211 70 285 0.0 0.0 0.00 0.00 0.00 79
20260830075007 70 285 0.0 0.0 0.00 0.00 0.00 79
20260830074805 70 285 0.0 0.0 0.00 0.00 0.00 79
20260830074603 70 285 0.0 0.0 0.00 0.00 0.00 78
20260830074403 70 285 0.0 0.0 0.00 0.00 0.00 78
20260830074153 70 285 0.0 0.0 0.00 0.00 0.00 78
20260830073959 70 285 0.0 0.0 0.00 0.00 0.00 78
20260830073755 70 285 0.0 0.0 0.00 0.00 0.00 78
20260830073553 70 285 0.0 0.0 0.00 0.00 0.00 78
20260830073353 71 285 0.0 0.0 0.00 0.00 0.00 78
20260830073149 70 285 0.0 0.0 0.00 0.00 0.00 78
20260830072947 70 285 0.0 0.0 0.00 0.00 0.00 78
20260830072745 70 285 0.0 1.7 0.00 0.00 0.00 79
20260830072543 70 285 0.0 1.7 0.00 0.00 0.00 79
20260830072341 70 285 0.0 1.7 0.00 0.00 0.00 79
20260830072139 70 285 0.0 2.6 0.00 0.00 0.00 79
20260830071937 70 285 0.0 2.6 0.00 0.00 0.00 79
20260830071737 70 299 1.7 3.5 0.00 0.00 0.00 79
20260830071534 70 274 0.0 3.5 0.00 0.00 0.00 79
20260830071131 70 274 0.0 3.5 0.00 0.00 0.00 79
20260830070929 70 309 1.7 3.5 0.00 0.00 0.00 79
20260830070728 70 300 2.6 3.5 0.00 0.00 0.00 79
20260830070525 70 292 2.6 3.5 0.00 0.00 0.00 79
20260830070323 70 298 1.7 3.5 0.00 0.00 0.00 79
20260830070120 70 293 1.7 3.5 0.00 0.00 0.00 79
20260830065920 70 298 2.6 3.5 0.00 0.00 0.00 79
20260830065718 70 285 2.6 3.5 0.00 0.00 0.00 79
20260830065514 70 305 2.6 3.5 0.00 0.00 0.00 79
20260830065314 70 312 2.6 3.5 0.00 0.00 0.00 79
20260830065112 70 302 2.6 4.3 0.00 0.00 0.00 79
20260830064908 71 303 2.6 4.3 0.00 0.00 0.00 78
20260830064706 71 303 1.7 4.3 0.00 0.00 0.00 78
20260830064506 71 298 3.5 4.3 0.00 0.00 0.00 78
20260830064303 71 300 2.6 4.3 0.00 0.00 0.00 78
20260830064100 70 292 3.5 2.6 0.00 0.00 0.00 78
20260830063900 71 306 2.6 2.6 0.00 0.00 0.00 78
20260830063658 71 302 1.7 3.5 0.00 0.00 0.00 78
20260830063454 71 291 0.9 3.5 0.00 0.00 0.00 78
20260830063051 71 282 3.5 2.6 0.00 0.00 0.00 78
20260830062850 71 288 2.6 2.6 0.00 0.00 0.00 78
20260830062647 71 285 2.6 4.3 0.00 0.00 0.00 77
20260830062445 71 292 1.7 4.3 0.00 0.00 0.00 77
20260830062245 71 295 1.7 6.1 0.00 0.00 0.00 77
20260830062041 71 289 2.6 6.1 0.00 0.00 0.00 77
20260830061839 71 291 3.5 6.1 0.00 0.00 0.00 77
20260830061639 71 286 4.3 6.1 0.00 0.00 0.00 77
20260830061435 71 284 5.2 6.1 0.00 0.00 0.00 77
20260830061235 71 277 3.5 6.1 0.00 0.00 0.00 76
20260830061031 71 277 5.2 6.1 0.00 0.00 0.00 76
20260830060831 71 275 4.3 6.1 0.00 0.00 0.00 75
20260830060627 72 268 4.3 4.3 0.00 0.00 0.00 75
20260830060425 72 275 5.2 4.3 0.00 0.00 0.00 74
20260830060223 72 293 3.5 3.5 0.00 0.00 0.00 74
20260830060021 72 293 3.5 3.5 0.00 0.00 0.00 74
20260830055819 72 293 3.5 3.5 0.00 0.00 0.00 74
20260830055617 72 285 2.6 3.5 0.00 0.00 0.00 74
20260830055415 72 281 2.6 3.5 0.00 0.00 0.00 74
20260830055213 72 288 2.6 5.2 0.00 0.00 0.00 74
20260830055011 72 289 2.6 5.2 0.00 0.00 0.00 73
20260830054809 72 298 3.5 5.2 0.00 0.00 0.00 73
20260830054405 73 285 4.3 5.2 0.00 0.00 0.00 72
20260830054203 73 282 4.3 4.3 0.00 0.00 0.00 72
20260830054001 73 284 4.3 4.3 0.00 0.00 0.00 71
20260830053759 73 279 3.5 4.3 0.00 0.00 0.00 71
20260830053558 73 299 3.5 0.0 0.00 0.00 0.00 71
20260830053356 73 299 2.6 0.0 0.00 0.00 0.00 71
20260830053154 73 285 0.0 0.0 0.00 0.00 0.00 70
20260830052750 73 285 0.0 0.0 0.00 0.00 0.00 70
20260830052548 73 285 0.0 0.0 0.00 0.00 0.00 70
20260830052346 73 285 0.0 0.0 0.00 0.00 0.00 70
20260830052144 74 285 0.0 0.0 0.00 0.00 0.00 69
20260830051740 73 285 0.0 0.0 0.00 0.00 0.00 69
20260830051336 74 285 0.0 0.0 0.00 0.00 0.00 69
20260830050932 74 285 0.0 0.0 0.00 0.00 0.00 68
20260830050730 74 285 0.0 0.0 0.00 0.00 0.00 68
20260830050528 74 285 0.0 0.0 0.00 0.00 0.00 68
20260830050326 74 285 0.0 0.0 0.00 0.00 0.00 68
20260830050124 74 285 0.0 0.0 0.00 0.00 0.00 69
20260830045922 74 285 0.0 0.0 0.00 0.00 0.00 69
20260830045720 74 285 0.0 0.0 0.00 0.00 0.00 69
20260830045518 74 285 0.0 0.0 0.00 0.00 0.00 69
20260830045316 74 285 0.0 0.0 0.00 0.00 0.00 69
20260830045114 75 285 0.0 0.0 0.00 0.00 0.00 68
20260830044912 75 285 0.0 0.0 0.00 0.00 0.00 69
20260830044710 74 285 0.0 0.0 0.00 0.00 0.00 69
20260830044508 75 285 0.0 0.0 0.00 0.00 0.00 69
20260830044307 75 285 0.0 0.0 0.00 0.00 0.00 69
20260830044110 75 285 0.0 0.0 0.00 0.00 0.00 68
20260830044105 75 285 0.0 0.0 0.00 0.00 0.00 68
20260830043903 75 285 0.0 0.0 0.00 0.00 0.00 68
20260830043701 75 285 0.0 0.0 0.00 0.00 0.00 68
20260830043459 75 285 0.0 0.0 0.00 0.00 0.00 68
20260830043055 75 285 0.0 0.0 0.00 0.00 0.00 68
20260830042853 75 285 0.0 0.0 0.00 0.00 0.00 68
20260830042651 75 285 0.0 0.0 0.00 0.00 0.00 68
20260830042449 75 285 0.0 0.0 0.00 0.00 0.00 68
20260830042247 75 285 0.0 0.0 0.00 0.00 0.00 68
20260830042045 75 285 0.0 0.0 0.00 0.00 0.00 67
20260830041843 75 285 0.0 0.0 0.00 0.00 0.00 67
20260830041641 75 285 0.0 0.9 0.00 0.00 0.00 67
20260830041439 75 285 0.0 0.9 0.00 0.00 0.00 66
20260830041237 75 285 0.0 2.6 0.00 0.00 0.00 67
20260830041035 76 285 0.0 2.6 0.00 0.00 0.00 66
20260830040833 76 306 0.0 2.6 0.00 0.00 0.00 66
20260830040631 76 303 1.7 4.3 0.00 0.00 0.00 66
20260830040429 76 302 1.7 4.3 0.00 0.00 0.00 66
20260830040227 76 310 2.6 3.5 0.00 0.00 0.00 66
20260830040025 76 312 2.6 3.5 0.00 0.00 0.00 64
20260830035823 76 303 2.6 3.5 0.00 0.00 0.00 64
20260830035621 76 285 1.7 4.3 0.00 0.00 0.00 64
20260830035419 76 285 0.9 4.3 0.00 0.00 0.00 64
20260830035217 76 289 1.7 2.6 0.00 0.00 0.00 63
20260830035016 77 289 1.7 2.6 0.00 0.00 0.00 63
20260830034815 77 293 2.6 2.6 0.00 0.00 0.00 61
20260830034612 77 285 0.0 0.0 0.00 0.00 0.00 61
20260830034410 77 285 0.0 0.0 0.00 0.00 0.00 61
20260830034208 77 285 0.0 0.0 0.00 0.00 0.00 61
20260830033602 77 285 0.0 0.0 0.00 0.00 0.00 61
20260830033400 77 285 0.0 0.0 0.00 0.00 0.00 61
20260830033158 77 285 0.0 0.0 0.00 0.00 0.00 60
20260830032956 77 285 0.0 0.0 0.00 0.00 0.00 61
20260830032754 77 285 0.0 0.0 0.00 0.00 0.00 61
20260830032552 77 285 0.0 0.0 0.00 0.00 0.00 61
20260830032350 77 285 0.0 0.0 0.00 0.00 0.00 61
20260830032148 77 285 0.0 0.9 0.00 0.00 0.00 61
20260830031946 77 285 0.0 0.9 0.00 0.00 0.00 61
20260830031744 77 285 0.0 0.0 0.00 0.00 0.00 61
20260830031542 77 285 0.0 0.0 0.00 0.00 0.00 61
20260830031340 77 286 0.9 0.0 0.00 0.00 0.00 61
20260830031138 77 165 0.0 0.0 0.00 0.00 0.00 61
20260830030936 77 165 0.0 0.0 0.00 0.00 0.00 61